Location: Bun
(42.9667°N, 0.1500°W)
Time: 15:26:39
(UTC+00:00)

IRIDIUM 104 - Pass Details

Date: 03 February 2023
Orbit: 776 x 779 km, 86.4° (Epoch: 23 March)

Event Time Altitude Azimuth Distance (km) Brightness Sun altitude
Rises 18:27:12 0° 1° (N) 3,273 7.4 -13.4°
Reaches altitude 10° 18:29:38 10° 7° (N) 2,341 6.6 -13.8°
Maximum altitude 18:34:44 52° 83° (E) 966 4.4 -14.8°
Drops below altitude 10° 18:39:48 10° 160° (SSE) 2,322 6.7 -15.7°
Sets 18:42:12 0° 165° (SSE) 3,245 7.5 -16.1°
